TimeEST,TemperatureF,Dew PointF,Humidity,Sea Level PressureIn,VisibilityMPH,Wind Direction,Wind SpeedMPH,Gust SpeedMPH,PrecipitationIn,Events,Conditions,WindDirDegrees,DateUTC
12:53 AM,71.1,62.1,73,29.94,10.0,Calm,Calm,-,N/A,,Mostly Cloudy,0,2012-11-06 05:53:00
1:53 AM,71.1,63.0,75,29.93,10.0,North,3.5,-,N/A,,Scattered Clouds,10,2012-11-06 06:53:00
2:53 AM,73.0,62.1,68,29.92,10.0,North,3.5,-,N/A,,Mostly Cloudy,360,2012-11-06 07:53:00
3:53 AM,71.1,62.1,73,29.91,10.0,North,3.5,-,N/A,,Clear,10,2012-11-06 08:53:00
4:53 AM,71.1,63.0,75,29.92,10.0,North,3.5,-,N/A,,Clear,350,2012-11-06 09:53:00
5:53 AM,71.1,62.1,73,29.91,10.0,Calm,Calm,-,N/A,,Clear,0,2012-11-06 10:53:00
6:53 AM,71.1,63.0,75,29.94,10.0,North,4.6,-,N/A,,Clear,360,2012-11-06 11:53:00
7:53 AM,73.9,63.0,68,29.95,10.0,NNE,3.5,-,N/A,,Clear,20,2012-11-06 12:53:00
8:53 AM,78.1,63.0,60,29.96,10.0,North,5.8,-,N/A,,Clear,350,2012-11-06 13:53:00
9:53 AM,79.0,62.1,56,29.96,10.0,NE,4.6,-,N/A,,Clear,40,2012-11-06 14:53:00
10:53 AM,78.1,63.0,60,29.95,10.0,NE,5.8,-,N/A,,Clear,50,2012-11-06 15:53:00
11:53 AM,81.0,63.0,54,29.93,10.0,NNE,4.6,-,N/A,,Clear,20,2012-11-06 16:53:00
12:53 PM,81.0,64.0,56,29.90,10.0,Variable,4.6,-,N/A,,Clear,0,2012-11-06 17:53:00
1:53 PM,81.0,64.9,58,29.88,10.0,Calm,Calm,-,N/A,,Clear,0,2012-11-06 18:53:00
2:53 PM,82.0,64.0,54,29.87,10.0,Variable,4.6,-,N/A,,Clear,0,2012-11-06 19:53:00
3:53 PM,79.0,64.0,60,29.87,10.0,WNW,4.6,-,N/A,,Clear,300,2012-11-06 20:53:00
4:53 PM,77.0,64.0,64,29.87,10.0,WNW,3.5,-,N/A,,Clear,300,2012-11-06 21:53:00
5:53 PM,73.9,64.0,71,29.88,10.0,WSW,3.5,-,N/A,,Clear,250,2012-11-06 22:53:00
6:53 PM,73.0,64.0,73,29.89,10.0,Calm,Calm,-,N/A,,Clear,0,2012-11-06 23:53:00
7:53 PM,73.9,64.0,71,29.91,10.0,West,3.5,-,N/A,,Clear,270,2012-11-07 00:53:00
8:53 PM,73.0,64.9,76,29.91,10.0,Calm,Calm,-,N/A,,Clear,0,2012-11-07 01:53:00
9:53 PM,73.0,64.9,76,29.91,10.0,Calm,Calm,-,N/A,,Clear,0,2012-11-07 02:53:00
10:53 PM,73.0,66.0,79,29.90,10.0,WSW,3.5,-,N/A,,Clear,240,2012-11-07 03:53:00
11:53 PM,73.0,66.9,81,29.89,10.0,Calm,Calm,-,N/A,,Clear,0,2012-11-07 04:53:00